* Astronomy

Members Login
Username 
 
Password 
    Remember Me  
Post Info TOPIC: Asteroid 2011 ON45


L

Posts: 131433
Date:
Asteroid 2011 ON45
Permalink  
 


Orbital elements:
2011 ON45
Epoch 2011 July 18.0 TT = JDT 2455760.5                 MPC
M 359.79032              (2000.0)            P               Q
n   0.02227937     Peri.  348.24974     +0.76285223     +0.64358660
a  12.5083702      Node   331.39369     -0.58222262     +0.64200569
e   0.1226994      Incl.    7.44884     -0.28119976     +0.41668331
P  44.2            H   11.5           G   0.15
From 12 observations 2011 July 27-Aug. 7

MPEC 2011 - P58



__________________
Page 1 of 1  sorted by
Quick Reply

Please log in to post quick replies.



Create your own FREE Forum
Report Abuse
Powered by ActiveBoard